KB1DML-4 Weather Reports


time (UTC)temp
C
wind
direction
speed
KPH
gust
KPH
rain 1hr
cm
rain 24hr
cm
rain mn
cm
humidity
%
barometer
mb
20260507085524 9 293 6.4 11.3 0.00 0.46 0.00 84 1003.3
20260507085018 9 315 8.0 11.3 0.00 0.46 0.00 85 1003.3
20260507084524 9 293 3.2 11.3 0.00 0.46 0.00 85 1003.3
20260507084024 9 315 8.0 11.3 0.00 0.46 0.00 84 1002.7
20260507083524 9 315 4.8 12.9 0.00 0.46 0.00 85 1002.7
20260507083016 9 315 6.4 12.9 0.00 0.46 0.00 84 1002.7
20260507082536 9 315 9.7 14.5 0.00 0.46 0.00 83 1002.8
20260507082024 10 293 8.0 9.7 0.00 0.46 0.00 83 1002.8
20260507081524 10 293 6.4 9.7 0.00 0.46 0.00 83 1002.8
20260507081016 10 293 6.4 12.9 0.00 0.46 0.00 82 1002.9
20260507080515 10 315 8.0 12.9 0.00 0.46 0.00 81 1002.9
20260507080016 10 293 8.0 16.1 0.00 0.46 0.00 81 1002.9
20260507075517 10 293 6.4 11.3 0.00 0.46 0.00 80 1003.0
20260507075044 10 293 11.3 19.3 0.00 0.46 0.00 81 1003.0
20260507074524 10 315 9.7 12.9 0.00 0.46 0.00 83 1003.0
20260507074024 10 293 9.7 16.1 0.00 0.46 0.00 82 1002.4
20260507073516 10 315 6.4 19.3 0.00 0.46 0.00 84 1002.4
20260507073016 10 293 6.4 12.9 0.00 0.46 0.00 85 1002.4
20260507072545 10 293 8.0 12.9 0.00 0.46 0.00 84 1002.3
20260507072018 10 315 6.4 8.0 0.00 0.46 0.00 85 1002.3
20260507071524 10 293 4.8 8.0 0.00 0.46 0.00 85 1002.3
20260507071024 10 293 4.8 9.7 0.00 0.46 0.00 85 1002.5
20260507070516 11 293 9.7 14.5 0.00 0.46 0.00 84 1002.5
20260507070124 11 315 6.4 9.7 0.00 0.46 0.00 85 1002.5
20260507065538 11 293 6.4 12.9 0.00 0.46 0.00 84 1002.4
20260507065024 11 293 4.8 9.7 0.00 0.46 0.00 84 1002.4
20260507064524 11 293 8.0 12.9 0.00 0.46 0.00 84 1002.4
20260507064016 11 293 4.8 9.7 0.00 0.46 0.00 84 1002.1
20260507063516 11 293 1.6 6.4 0.00 0.46 0.00 84 1002.1
20260507063016 11 293 6.4 9.7 0.00 0.46 0.00 84 1002.1
20260507062515 11 293 4.8 6.4 0.00 0.46 0.00 83 1002.1
20260507062015 11 293 3.2 6.4 0.00 0.46 0.00 83 1002.1
20260507061536 11 293 3.2 8.0 0.00 0.46 0.00 82 1002.1
20260507061018 11 315 4.8 8.0 0.00 0.46 0.00 82 1002.4
20260507060519 11 315 4.8 9.7 0.00 0.46 0.00 81 1002.4
20260507060104 11 293 6.4 9.7 0.00 0.46 0.00 82 1002.4
20260507055524 11 293 9.7 14.5 0.00 0.46 0.00 83 1002.6
20260507055017 11 293 6.4 9.7 0.00 0.46 0.00 81 1002.6
20260507054516 11 293 9.7 16.1 0.00 0.46 0.00 82 1002.6
20260507054016 11 315 9.7 17.7 0.00 0.46 0.00 82 1002.8
20260507053523 11 315 6.4 12.9 0.00 0.46 0.00 82 1002.8
20260507053023 11 293 6.4 14.5 0.00 0.46 0.00 82 1002.8
20260507052524 11 293 6.4 12.9 0.00 0.46 0.00 83 1002.9
20260507052024 11 315 4.8 9.7 0.00 0.46 0.00 83 1002.9
20260507051524 11 315 3.2 9.7 0.00 0.46 0.00 85 1002.9
20260507051017 11 293 3.2 9.7 0.00 0.46 0.00 86 1002.6
20260507050516 11 315 1.6 6.4 0.00 0.46 0.00 87 1002.6
20260507050024 11 0.0 4.8 0.00 0.46 0.00 87 1002.6
20260507045516 11 293 1.6 6.4 0.00 0.46 0.00 86 1002.4
20260507045016 11 315 6.4 9.7 0.00 0.46 0.00 86 1002.4
20260507044523 11 293 8.0 12.9 0.00 0.46 0.00 85 1002.4
20260507044017 12 293 6.4 12.9 0.00 0.46 0.00 85 1002.5
20260507043518 12 293 6.4 12.9 0.00 0.46 0.00 85 1002.5
20260507043024 12 293 8.0 12.9 0.00 0.46 0.00 85 1002.5
20260507042517 12 293 9.7 16.1 0.00 0.46 0.00 85 1002.9
20260507042024 12 293 11.3 17.7 0.00 0.46 0.00 87 1002.9
20260507041516 12 293 11.3 16.1 0.00 0.46 0.00 88 1002.9
20260507041057 12 293 12.9 19.3 0.00 0.46 0.00 88 1002.5
20260507040524 12 293 9.7 16.1 0.00 0.46 0.00 88 1002.5
20260507040036 12 293 9.7 19.3 0.00 0.46 0.46 88 1002.5
20260507035518 12 293 8.0 16.1 0.00 0.46 0.46 88 1002.2
20260507035018 13 315 8.0 16.1 0.00 0.46 0.46 88 1002.2
20260507034516 13 293 8.0 14.5 0.00 0.46 0.46 89 1002.2
20260507034016 13 293 12.9 22.5 0.00 0.46 0.46 89 1001.9
20260507033524 14 293 14.5 19.3 0.00 0.46 0.46 89 1001.9
20260507033024 14 293 12.9 20.9 0.00 0.46 0.46 88 1001.9
20260507032544 15 293 12.9 19.3 0.00 0.46 0.46 89 1001.7
20260507032044 15 293 14.5 22.5 0.00 0.46 0.46 89 1001.7
20260507031538 15 315 16.1 24.1 0.00 0.46 0.46 90 1001.7
20260507031024 15 315 11.3 22.5 0.00 0.46 0.46 92 1001.8
20260507030524 15 315 12.9 24.1 0.00 0.46 0.46 92 1001.8
20260507030018 15 270 3.2 9.7 0.00 0.46 0.46 94 1001.8
20260507025524 15 270 1.6 3.2 0.00 0.46 0.46 94 1001.4
20260507025036 15 203 1.6 3.2 0.00 0.46 0.46 94 1001.4
20260507024544 15 293 1.6 4.8 0.00 0.46 0.46 94 1001.4
20260507024024 15 225 1.6 3.2 0.00 0.46 0.46 94 1001.4
20260507023518 15 225 1.6 3.2 0.00 0.46 0.46 94 1001.4
20260507023024 15 203 1.6 3.2 0.00 0.46 0.46 94 1001.4
20260507022518 15 225 1.6 3.2 0.00 0.46 0.46 94 1001.1
20260507022018 15 0.0 3.2 0.00 0.46 0.46 94 1001.1
20260507021516 15 158 1.6 3.2 0.00 0.46 0.46 94 1001.1
20260507021024 15 158 1.6 6.4 0.00 0.46 0.46 94 1001.2
20260507020524 15 203 1.6 3.2 0.00 0.46 0.46 94 1001.2
20260507020016 15 158 1.6 3.2 0.00 0.46 0.46 94 1001.2
20260507015516 15 158 1.6 4.8 0.00 0.46 0.46 94 1001.3
20260507015044 15 158 1.6 6.4 0.00 0.46 0.46 94 1001.3
20260507014524 15 158 1.6 4.8 0.00 0.46 0.46 94 1001.3
20260507014018 15 158 3.2 6.4 0.00 0.46 0.46 94 1001.3
20260507013538 15 203 1.6 6.4 0.00 0.46 0.46 94 1001.3
20260507013024 15 158 3.2 9.7 0.00 0.46 0.46 94 1001.3
20260507012537 15 158 1.6 4.8 0.00 0.46 0.46 94 1001.3
20260507012018 15 158 1.6 6.4 0.00 0.46 0.46 94 1001.3
20260507011518 15 158 1.6 4.8 0.00 0.46 0.46 94 1001.3
20260507011044 15 158 1.6 3.2 0.00 0.46 0.46 94 1001.2
20260507010516 15 158 1.6 4.8 0.00 0.46 0.46 94 1001.2
20260507010016 15 158 3.2 8.0 0.00 0.46 0.46 94 1001.2
20260507005524 15 158 3.2 6.4 0.00 0.46 0.46 94 1001.2
20260507005016 15 180 3.2 8.0 0.00 0.46 0.46 94 1001.2
20260507004524 15 158 3.2 9.7 0.00 0.46 0.46 94 1001.2
20260507004024 15 180 4.8 8.0 0.00 0.46 0.46 94 1000.9
20260507003524 15 158 3.2 8.0 0.00 0.46 0.46 94 1000.9
20260507003018 15 158 3.2 8.0 0.00 0.46 0.46 94 1000.9
20260507002524 15 158 1.6 6.4 0.03 0.46 0.46 94 1000.9
20260507002024 15 158 3.2 8.0 0.03 0.46 0.46 94 1000.9
20260507001516 15 158 3.2 9.7 0.08 0.46 0.46 94 1000.9
20260507001016 15 158 4.8 8.0 0.13 0.46 0.46 94 1000.8
20260507000518 15 158 3.2 8.0 0.13 0.46 0.46 94 1000.8
20260507000016 15 158 4.8 11.3 0.13 0.46 0.46 94 1000.8
20260506235524 15 158 4.8 9.7 0.15 0.46 0.46 94 1000.7
20260506235024 15 158 3.2 6.4 0.18 0.46 0.46 94 1000.7
20260506234524 15 158 3.2 6.4 0.20 0.46 0.46 94 1000.7
20260506234044 15 158 3.2 4.8 0.23 0.46 0.46 94 1000.7
20260506233524 15 158 3.2 6.4 0.23 0.46 0.46 94 1000.7
20260506233024 15 158 3.2 8.0 0.23 0.46 0.46 94 1000.7
20260506232516 15 158 3.2 6.4 0.20 0.43 0.43 94 1000.8
20260506232016 15 158 3.2 6.4 0.20 0.43 0.43 93 1000.8
20260506231516 15 158 3.2 4.8 0.15 0.38 0.38 93 1000.8
20260506231018 15 158 3.2 6.4 0.13 0.33 0.33 93 1000.8
20260506230524 15 158 3.2 6.4 0.13 0.33 0.33 93 1000.8
20260506230038 15 158 3.2 4.8 0.13 0.33 0.33 93 1000.8
20260506225518 15 158 3.2 8.0 0.15 0.30 0.30 93 1000.8
20260506225044 15 158 3.2 6.4 0.15 0.28 0.28 93 1000.8
20260506224524 15 158 3.2 6.4 0.13 0.25 0.25 93 1000.8
20260506224018 15 158 3.2 6.4 0.10 0.23 0.23 93 1000.8
20260506223516 15 158 4.8 9.7 0.10 0.23 0.23 92 1000.8
20260506223044 15 158 3.2 9.7 0.10 0.23 0.23 92 1000.8
20260506222536 15 158 3.2 6.4 0.10 0.23 0.23 92 1000.9
20260506222018 15 158 4.8 9.7 0.10 0.23 0.23 92 1000.9
20260506221544 15 158 4.8 8.0 0.10 0.23 0.23 92 1000.9
20260506221018 15 158 4.8 9.7 0.08 0.20 0.20 92 1001.1
20260506220518 15 158 3.2 6.4 0.08 0.20 0.20 91 1001.1
20260506220016 15 158 4.8 9.7 0.08 0.20 0.20 91 1001.1
20260506215518 15 158 4.8 9.7 0.03 0.15 0.15 91 1000.8
20260506215018 15 158 3.2 6.4 0.03 0.13 0.13 91 1000.8
20260506214518 15 158 4.8 9.7 0.03 0.13 0.13 91 1000.8
20260506214024 15 158 4.8 9.7 0.03 0.13 0.13 90 1001.2
20260506213515 15 158 6.4 12.9 0.03 0.13 0.13 90 1001.2
20260506213036 15 158 6.4 11.3 0.03 0.13 0.13 91 1001.2
20260506212524 15 158 4.8 9.7 0.03 0.13 0.13 91 1001.3
20260506212024 15 158 4.8 8.0 0.05 0.13 0.13 91 1001.3
20260506211518 15 158 3.2 8.0 0.05 0.13 0.13 91 1001.3
20260506211016 15 158 4.8 8.0 0.05 0.13 0.13 90 1001.5
20260506210524 16 158 6.4 11.3 0.05 0.13 0.13 90 1001.5
20260506210038 16 158 4.8 11.3 0.08 0.13 0.13 90 1001.5
20260506205518 16 158 4.8 9.7 0.08 0.13 0.13 90 1001.6
20260506205024 16 158 6.4 16.1 0.05 0.10 0.10 89 1001.6
20260506204524 16 158 4.8 12.9 0.05 0.10 0.10 90 1001.6
20260506204015 16 158 4.8 9.7 0.05 0.10 0.10 90 1001.7
20260506203516 16 158 4.8 11.3 0.05 0.10 0.10 89 1001.7
20260506203017 16 158 3.2 6.4 0.05 0.10 0.10 89 1001.7
20260506202524 16 158 3.2 8.0 0.05 0.10 0.10 89 1001.5
20260506202038 16 158 3.2 8.0 0.05 0.08 0.08 88 1001.5
20260506201516 17 158 4.8 4.8 0.05 0.08 0.08 87 1001.5
20260506201025 17 158 1.6 4.8 0.05 0.08 0.08 87 1001.7
20260506200545 17 158 3.2 6.4 0.05 0.08 0.08 86 1001.7
20260506200019 17 158 1.6 6.4 0.05 0.05 0.05 86 1001.7
20260506195525 17 180 3.2 8.0 0.05 0.05 0.05 86 1001.6
20260506195017 17 158 3.2 8.0 0.05 0.05 0.05 86 1001.6
20260506194516 17 158 3.2 4.8 0.05 0.05 0.05 86 1001.6
20260506194037 17 158 3.2 6.4 0.05 0.05 0.05 85 1001.7
20260506193517 17 158 3.2 6.4 0.05 0.05 0.05 84 1001.7
20260506193045 17 158 1.6 4.8 0.05 0.05 0.05 83 1001.7
20260506192556 17 158 1.6 6.4 0.05 0.05 0.05 82 1001.8
20260506192018 18 158 3.2 6.4 0.03 0.03 0.03 80 1001.8
20260506191525 18 158 1.6 4.8 0.03 0.03 0.03 79 1001.8
20260506191044 18 203 1.6 8.0 0.03 0.03 0.03 78 1001.9
20260506190556 18 225 1.6 6.4 0.03 0.03 0.03 77 1001.9
20260506190015 19 225 3.2 9.7 0.00 0.00 0.00 75 1001.9
20260506185516 19 203 3.2 9.7 0.00 0.00 0.00 74 1001.9
20260506185016 20 158 1.6 4.8 0.00 0.00 0.00 73 1001.9
20260506184537 20 203 3.2 9.7 0.00 0.00 0.00 71 1001.9
20260506184018 20 225 3.2 9.7 0.00 0.00 0.00 70 1001.9
20260506183517 20 203 1.6 4.8 0.00 0.00 0.00 69 1001.9
20260506183036 20 180 3.2 9.7 0.00 0.00 0.00 68 1001.9
20260506182518 21 225 3.2 11.3 0.00 0.00 0.00 66 1001.9
20260506182045 21 203 3.2 6.4 0.00 0.00 0.00 64 1001.9
20260506181524 21 203 1.6 4.8 0.00 0.00 0.00 65 1001.9
20260506181018 21 203 4.8 12.9 0.00 0.00 0.00 63 1002.0
20260506180544 22 203 6.4 11.3 0.00 0.00 0.00 60 1002.0
20260506180018 22 203 4.8 12.9 0.00 0.00 0.00 58 1002.0
20260506175524 22 203 6.4 17.7 0.00 0.00 0.00 58 1001.8
20260506175025 22 180 8.0 16.1 0.00 0.00 0.00 57 1001.8
20260506174518 22 158 8.0 24.1 0.00 0.00 0.00 57 1001.8
20260506174016 22 158 8.0 24.1 0.00 0.00 0.00 58 1001.9
20260506173516 22 158 4.8 14.5 0.00 0.00 0.00 59 1001.9
20260506173018 22 180 3.2 9.7 0.00 0.00 0.00 59 1001.9
20260506172525 22 203 6.4 14.5 0.00 0.00 0.00 59 1002.0
20260506172025 22 203 4.8 16.1 0.00 0.00 0.00 59 1002.0
20260506171524 22 203 1.6 4.8 0.00 0.00 0.00 60 1002.0
20260506171018 22 158 3.2 8.0 0.00 0.00 0.00 60 1002.4
20260506170545 22 203 3.2 6.4 0.00 0.00 0.00 61 1002.4
20260506170019 22 158 4.8 11.3 0.00 0.00 0.00 61 1002.4
20260506165525 22 203 4.8 8.0 0.00 0.00 0.00 61 1002.4
20260506165016 22 158 4.8 9.7 0.00 0.00 0.00 61 1002.4
20260506164516 21 158 4.8 11.3 0.00 0.00 0.00 61 1002.4
20260506164016 21 158 6.4 9.7 0.00 0.00 0.00 61 1002.6
20260506163536 21 180 4.8 8.0 0.00 0.00 0.00 61 1002.6
20260506163016 21 158 3.2 8.0 0.00 0.00 0.00 62 1002.6
20260506162518 21 158 3.2 8.0 0.00 0.00 0.00 62 1002.9
20260506162018 21 158 4.8 11.3 0.00 0.00 0.00 62 1002.9
20260506161524 21 158 4.8 11.3 0.00 0.00 0.00 63 1002.9
20260506161017 21 158 3.2 6.4 0.00 0.00 0.00 63 1003.3
20260506160518 21 158 3.2 9.7 0.00 0.00 0.00 64 1003.3
20260506160105 21 158 3.2 6.4 0.00 0.00 0.00 64 1003.3
20260506155536 21 158 3.2 4.8 0.00 0.00 0.00 64 1003.6
20260506155016 21 158 3.2 8.0 0.00 0.00 0.00 64 1003.6
20260506154525 21 203 1.6 8.0 0.00 0.00 0.00 64 1003.6
20260506154024 21 158 3.2 8.0 0.00 0.00 0.00 64 1003.9
20260506153544 21 203 4.8 9.7 0.00 0.00 0.00 64 1004.0
20260506153018 21 158 6.4 11.3 0.00 0.00 0.00 64 1004.0
20260506152518 21 158 6.4 11.3 0.00 0.00 0.00 64 1004.0
20260506152016 21 180 8.0 16.1 0.00 0.00 0.00 64 1004.0
20260506151518 21 158 8.0 14.5 0.00 0.00 0.00 64 1004.0
20260506151024 21 158 6.4 14.5 0.00 0.00 0.00 64 1004.0
20260506150518 21 158 6.4 16.1 0.00 0.00 0.00 65 1004.0
20260506150056 21 180 6.4 11.3 0.00 0.00 0.00 65 1004.0
20260506145524 21 158 1.6 9.7 0.00 0.00 0.00 66 1004.0
20260506145038 21 180 3.2 8.0 0.00 0.00 0.00 66 1004.0
20260506144517 21 158 3.2 6.4 0.00 0.00 0.00 67 1004.0
20260506144024 20 225 3.2 8.0 0.00 0.00 0.00 67 1004.0
20260506143518 20 158 4.8 12.9 0.00 0.00 0.00 67 1004.0
20260506143018 20 158 4.8 9.7 0.00 0.00 0.00 68 1004.0
20260506142524 20 203 3.2 8.0 0.00 0.00 0.00 68 1003.7
20260506142018 20 180 4.8 9.7 0.00 0.00 0.00 68 1003.7
20260506141545 20 158 3.2 8.0 0.00 0.00 0.00 69 1003.7
20260506141016 20 158 6.4 14.5 0.00 0.00 0.00 70 1003.9
20260506140516 20 158 3.2 9.7 0.00 0.00 0.00 71 1003.9
20260506140024 19 158 4.8 8.0 0.00 0.00 0.00 72 1003.9
20260506135517 19 158 4.8 12.9 0.00 0.00 0.00 72 1004.2
20260506135024 18 158 4.8 11.3 0.00 0.00 0.00 73 1004.2
20260506134525 18 203 3.2 9.7 0.00 0.00 0.00 73 1004.2
20260506134044 18 203 3.2 9.7 0.00 0.00 0.00 73 1004.5
20260506133524 18 158 4.8 9.7 0.00 0.00 0.00 74 1004.5
20260506133018 18 158 1.6 6.4 0.00 0.00 0.00 74 1004.5
20260506132524 18 203 3.2 9.7 0.00 0.00 0.00 75 1004.5
20260506132016 18 180 3.2 6.4 0.00 0.00 0.00 75 1004.5
20260506131516 18 158 4.8 11.3 0.00 0.00 0.00 75 1004.5
20260506131024 18 158 4.8 11.3 0.00 0.00 0.00 75 1004.5
20260506130524 18 180 6.4 12.9 0.00 0.00 0.00 75 1004.5
20260506130018 18 180 4.8 11.3 0.00 0.00 0.00 75 1004.5
20260506125524 18 158 6.4 11.3 0.00 0.00 0.00 74 1004.5
20260506125024 18 158 4.8 8.0 0.00 0.00 0.00 75 1004.5
20260506124518 18 158 4.8 12.9 0.00 0.00 0.00 75 1004.5
20260506124018 18 158 4.8 12.9 0.00 0.00 0.00 75 1004.4
20260506123518 17 158 6.4 11.3 0.00 0.00 0.00 76 1004.4
20260506123016 17 158 3.2 8.0 0.00 0.00 0.00 76 1004.4
20260506122516 17 203 3.2 6.4 0.00 0.00 0.00 76 1004.5
20260506122036 17 158 4.8 12.9 0.00 0.00 0.00 76 1004.5
20260506121524 17 203 4.8 8.0 0.00 0.00 0.00 75 1004.5
20260506121024 17 225 1.6 4.8 0.00 0.00 0.00 76 1004.7
20260506120524 17 158 3.2 9.7 0.00 0.00 0.00 77 1004.7
20260506120024 17 158 4.8 9.7 0.00 0.00 0.00 77 1004.7
20260506115517 17 158 3.2 8.0 0.00 0.00 0.00 77 1004.8
20260506115024 17 158 3.2 8.0 0.00 0.00 0.00 77 1004.8
20260506114604 17 158 3.2 6.4 0.00 0.00 0.00 78 1004.8
20260506114025 17 158 3.2 9.7 0.00 0.00 0.00 78 1005.0
20260506113524 16 180 3.2 6.4 0.00 0.00 0.00 78 1005.0
20260506113016 16 158 3.2 8.0 0.00 0.00 0.00 78 1005.0
20260506112516 16 158 3.2 6.4 0.00 0.00 0.00 78 1004.9
20260506112024 16 158 3.2 6.4 0.00 0.00 0.00 78 1005.0
20260506111518 16 158 3.2 9.7 0.00 0.00 0.00 78 1005.0
20260506111018 16 158 3.2 9.7 0.00 0.00 0.00 78 1005.0
20260506110537 16 158 4.8 9.7 0.00 0.00 0.00 79 1005.0
20260506110024 16 158 3.2 6.4 0.00 0.00 0.00 79 1005.0
20260506105518 16 158 3.2 8.0 0.00 0.00 0.00 79 1005.1
20260506105024 16 158 3.2 6.4 0.00 0.00 0.00 79 1005.1
20260506104518 16 158 3.2 6.4 0.00 0.00 0.00 79 1005.1
20260506104024 16 158 3.2 8.0 0.00 0.00 0.00 79 1005.0
20260506103516 16 158 4.8 9.7 0.00 0.00 0.00 79 1005.0
20260506103016 16 158 4.8 6.4 0.00 0.00 0.00 79 1005.0
20260506102524 16 158 4.8 6.4 0.00 0.00 0.00 79 1005.1
20260506102018 16 158 3.2 6.4 0.00 0.00 0.00 79 1005.1
20260506101524 16 158 3.2 6.4 0.00 0.00 0.00 79 1005.1
20260506101024 16 158 3.2 6.4 0.00 0.00 0.00 79 1005.0
20260506100518 16 158 3.2 8.0 0.00 0.00 0.00 79 1005.0
20260506100018 16 158 4.8 9.7 0.00 0.00 0.00 78 1005.0
20260506095538 16 158 3.2 6.4 0.00 0.00 0.00 78 1004.8
20260506095024 16 158 3.2 6.4 0.00 0.00 0.00 78 1004.8
20260506094556 16 158 3.2 9.7 0.00 0.00 0.00 78 1004.8
20260506094016 16 158 3.2 4.8 0.00 0.00 0.00 78 1005.1
20260506093518 16 158 3.2 6.4 0.00 0.00 0.00 78 1005.1
20260506093037 16 158 3.2 4.8 0.00 0.00 0.00 78 1005.1
20260506092524 16 158 3.2 8.0 0.00 0.00 0.00 77 1005.0
20260506092018 16 158 4.8 9.7 0.00 0.00 0.00 77 1005.0
20260506091604 16 158 4.8 11.3 0.00 0.00 0.00 77 1005.0
20260506091024 16 158 3.2 6.4 0.00 0.00 0.00 77 1005.0
20260506090516 16 158 3.2 8.0 0.00 0.00 0.00 76 1005.0
20260506090024 16 158 3.2 6.4 0.00 0.00 0.00 76 1005.0